Spokane Felts, WA

11:28 AM PDT on May 24, 2018 (GMT -0700)
Felts

Weather History for KSFF - February, 2013

Change the Weather History Date:

Thursday, February 14, 2013

  Actual Average Record
Temperature  
Mean Temperature 35 °F 34 °F  
Max Temperature 45 °F 42 °F 50 °F (2015)
Min Temperature 24 °F 26 °F 17 °F (2006)
Degree Days  
Heating Degree Days 30 31  
Month to date heating degree days 409 443  
Since 1 July heating degree days 3710 4155  
Cooling Degree Days 0 0  
Month to date cooling degree days 0 0  
Year to date cooling degree days 0 0  
Moisture  
Dew Point 26 °F    
Average Humidity 69    
Maximum Humidity 88    
Minimum Humidity 49    
Precipitation  
Precipitation 0.00 in 0.04 in 0.52 in (2018)
Month to date precipitation 0.08 0.80  
Year to date precipitation 1.71 2.75  
Sea Level Pressure  
Sea Level Pressure 30.50 in    
Wind  
Wind Speed 2 mph (South)    
Max Wind Speed 8 mph    
Max Gust Speed 10 mph    
Visibility 10 miles    
Events      
T = Trace of Precipitation, MM = Missing Value Source: NWS Daily Summary

Daily Weather History Graph

Daily Weather History Graph

Search for Another Location

Airport or City:

Astronomy

Feb. 14, 2013 Rise Set
Actual Time 6:56 AM PST 5:11 PM PST
Civil Twilight 6:24 AM PST 5:43 PM PST
Nautical Twilight 5:48 AM PST 6:19 PM PST
Astronomical Twilight 5:12 AM PST 6:55 PM PST
Moon 8:36 AM PST (2/14) 10:46 PM PST (2/14)
Length of Visible Light 11h 19m
Length of Day
10h 15m
Waxing Crescent, 22% of the Moon is Illuminated
Feb 14
Waxing Crescent
Feb 17
First Quarter
Feb 25
Full
Mar 4
Last Quarter
Mar 11
New

Hourly Weather History & Observations

Time (PST) Temp. Windchill Dew Point Humidity Pressure Visibility Wind Dir Wind Speed Gust Speed Precip Events Conditions
12:53 AM 26.1 °F 21.9 °F 21.9 °F 84% 30.39 in 10.0 mi ENE 3.5 mph - N/A   Clear
1:53 AM 27.0 °F - 21.9 °F 81% 30.41 in 10.0 mi Calm Calm - N/A   Clear
2:53 AM 27.0 °F - 23.0 °F 85% 30.43 in 9.0 mi Calm Calm - N/A   Clear
3:53 AM 26.1 °F - 23.0 °F 88% 30.43 in 9.0 mi Calm Calm - N/A   Clear
4:53 AM 26.1 °F - 21.9 °F 84% 30.45 in 10.0 mi Calm Calm - N/A   Clear
5:53 AM 25.0 °F - 21.9 °F 88% 30.46 in 9.0 mi Calm Calm - N/A   Clear
6:53 AM 26.1 °F - 21.9 °F 84% 30.48 in 10.0 mi Calm Calm - N/A   Mostly Cloudy
7:53 AM 28.0 °F - 23.0 °F 81% 30.50 in 10.0 mi Calm Calm - N/A   Overcast
8:53 AM 30.9 °F 27.5 °F 26.1 °F 82% 30.51 in 10.0 mi East 3.5 mph - N/A   Overcast
9:53 AM 35.1 °F 32.2 °F 28.0 °F 76% 30.52 in 10.0 mi East 3.5 mph - N/A   Overcast
10:53 AM 39.0 °F - 28.9 °F 67% 30.51 in 10.0 mi Calm Calm - N/A   Clear
11:53 AM 42.1 °F - 28.9 °F 60% 30.51 in 10.0 mi Calm Calm - N/A   Scattered Clouds
12:53 PM 43.0 °F 38.8 °F 30.0 °F 60% 30.50 in 10.0 mi SSW 6.9 mph - N/A   Overcast
1:53 PM 44.1 °F 40.8 °F 28.9 °F 55% 30.49 in 10.0 mi SSW 5.8 mph - N/A   Overcast
2:53 PM 44.1 °F 40.8 °F 27.0 °F 51% 30.50 in 10.0 mi SW 5.8 mph - N/A   Mostly Cloudy
3:53 PM 43.0 °F 41.3 °F 28.0 °F 56% 30.51 in 10.0 mi WNW 3.5 mph - N/A   Mostly Cloudy
4:53 PM 43.0 °F 41.3 °F 28.0 °F 56% 30.51 in 10.0 mi Variable 3.5 mph - N/A   Overcast
5:53 PM 37.0 °F - 28.0 °F 70% 30.52 in 10.0 mi Calm Calm - N/A   Clear
6:53 PM 33.1 °F - 27.0 °F 78% 30.53 in 10.0 mi Calm Calm - N/A   Clear
7:53 PM 32.0 °F - 26.1 °F 79% 30.53 in 10.0 mi Calm Calm - N/A   Clear
8:53 PM 30.9 °F - 26.1 °F 82% 30.55 in 10.0 mi Calm Calm - N/A   Clear
9:53 PM 30.0 °F - 26.1 °F 85% 30.55 in 10.0 mi Calm Calm - N/A   Clear
10:53 PM 30.0 °F - 25.0 °F 82% 30.57 in 10.0 mi Calm Calm - N/A   Clear
11:53 PM 28.9 °F - 26.1 °F 89% 30.58 in 10.0 mi Calm Calm - N/A   Scattered Clouds